Terminal Aerodrome Forecast
Issued by NWS Atlanta, GA

Home | Current Version | Previous Version | Text Only | Print | Product List | Glossary On
Versions: 1 2 3 4 5 6 7 8 9 10 11 12 13 14 15 16 17 18 19
618
FTUS42 KFFC 261406 AAA
TAFMCN
TAF AMD
KMCN 261406Z 2614/2712 08005KT P6SM SCT004 BKN012
      TEMPO 2614/2615 5SM BR BKN004
     FM261500 14006KT P6SM SCT012 BKN025
     FM261900 16007KT P6SM VCSH SCT045
      TEMPO 2623/2703 6SM -TSRA OVC035CB
     FM270400 21002KT 6SM BR VCSH BKN050 BKN100
     FM270900 20002KT P6SM OVC100=

USA.gov is the U.S. government's official web portal to all federal, state and local government web resources and services.